GW1765 Weather Reports


Display with metric or nautical units.
time (UTC)temp
F
wind
direction
speed
MPH
gust
MPH
rain 1hr
in
rain 24hr
in
rain mn
in
humidity
%
barometer
mb
20260904075023 53 242 6.0 11.0 0.00 0.01 0.00 82 1013.1
20260904074018 53 263 3.0 8.0 0.00 0.01 0.00 82 1013.0
20260904073116 52 265 3.0 8.0 0.00 0.01 0.00 82 1012.8
20260904072113 53 262 3.0 8.0 0.00 0.01 0.00 81 1012.7
20260904071108 53 266 3.0 8.0 0.00 0.01 0.00 81 1013.0
20260904070105 52 275 4.0 8.0 0.00 0.01 0.00 80 1012.9
20260904065121 52 227 4.0 10.0 0.00 0.01 0.00 80 1012.7
20260904064058 52 260 5.0 9.0 0.00 0.01 0.00 79 1012.5
20260904063056 53 235 6.0 9.0 0.00 0.01 0.00 79 1012.5
20260904062052 53 258 4.0 8.0 0.00 0.01 0.00 78 1012.3
20260904061109 53 259 5.0 9.0 0.00 0.01 0.00 78 1012.2
20260904060045 54 249 6.0 9.0 0.00 0.01 0.00 77 1012.2
20260904055042 54 232 5.0 11.0 0.00 0.01 0.00 75 1012.4
20260904054037 55 230 6.0 10.0 0.00 0.01 0.00 72 1012.2
20260904053033 55 228 5.0 9.0 0.00 0.01 0.00 71 1012.2
20260904052032 56 242 9.0 16.0 0.00 0.01 0.00 71 1012.1
20260904051027 56 243 8.0 15.0 0.00 0.01 0.00 70 1011.8
20260904050022 58 237 11.0 15.0 0.00 0.01 0.00 70 1011.7
20260904045020 59 231 10.0 16.0 0.00 0.01 0.00 70 1011.5
20260904044017 61 235 9.0 15.0 0.00 0.01 0.00 72 1011.4
20260904043112 61 249 11.0 15.0 0.00 0.01 0.00 78 1011.3
20260904042110 59 256 11.0 15.0 0.00 0.01 0.00 81 1011.1
20260904041127 59 245 8.0 14.0 0.00 0.01 0.00 81 1011.0
20260904035058 60 241 12.0 20.0 0.00 0.01 0.00 85 1010.9
20260904034055 61 229 11.0 17.0 0.00 0.01 0.00 90 1010.9
20260904033052 62 253 10.0 16.0 0.00 0.01 0.00 95 1010.8
20260904032048 62 240 10.0 15.0 0.00 0.01 0.00 99 1010.7
20260904031046 61 232 12.0 21.0 0.00 0.01 0.00 99 1010.7
20260904030040 60 265 12.0 18.0 0.00 0.01 0.00 99 1010.6
20260904025057 58 265 11.0 17.0 0.00 0.01 0.00 99 1010.3
20260904024033 59 267 6.0 11.0 0.00 0.01 0.00 99 1010.1
20260904023031 58 309 5.0 8.0 0.00 0.01 0.00 99 1009.9
20260904022047 57 305 5.0 8.0 0.00 0.01 0.00 99 1009.5
20260904021024 58 314 5.0 8.0 0.00 0.01 0.00 99 1009.5
20260904020019 58 290 5.0 8.0 0.00 0.01 0.00 99 1009.6
20260904015036 58 316 1.0 7.0 0.00 0.01 0.00 99 1009.8
20260904014112 58 280 3.0 7.0 0.00 0.01 0.00 99 1009.9
20260904013132 58 300 3.0 6.0 0.00 0.01 0.00 99 1010.2
20260904012107 58 305 1.0 6.0 0.00 0.01 0.00 99 1010.2
20260904011102 58 310 1.0 5.0 0.00 0.01 0.00 99 1010.2
20260904010058 59 326 2.0 6.0 0.00 0.01 0.00 99 1010.1
20260904005057 59 0.0 3.0 0.00 0.01 0.00 99 1010.4
20260904004052 0 0.0 0.0 0.00 0.01 0.00 1010.3
20260904003050 0 0.0 0.0 0.00 0.01 0.00 1010.4
20260904002045 0 0.0 0.0 0.00 0.01 0.00 1010.3
20260904001042 0 0.0 0.0 0.00 0.01 0.00 1010.3
20260904000038 0 0.0 0.0 0.00 0.01 0.00 1010.4
20260903235034 58 0.0 2.0 0.00 0.01 0.00 99 1010.5
20260903234033 58 0.0 0.0 0.00 0.01 0.00 99 1010.8
20260903233030 58 293 0.0 5.0 0.00 0.01 0.00 99 1011.0
20260903232024 57 0.0 1.0 0.00 0.01 0.00 99 1011.1
20260903231020 58 0.0 2.0 0.00 0.01 0.00 99 1011.2
20260903230017 57 0.0 0.0 0.00 0.01 0.00 99 1011.2
20260903225114 57 0.0 0.0 0.00 0.01 0.00 99 1011.3
20260903224111 56 298 0.0 6.0 0.00 0.01 0.00 99 1011.2
20260903223107 56 0.0 0.0 0.00 0.01 0.00 99 1011.2
20260903222105 56 0.0 0.0 0.00 0.01 0.00 99 1011.2
20260903221100 56 0.0 0.0 0.00 0.01 0.00 99 1011.3
20260903220056 56 0.0 0.0 0.00 0.01 0.00 99 1011.5
20260903215053 56 0.0 0.0 0.00 0.01 0.00 99 1011.5
20260903214113 56 0.0 0.0 0.00 0.01 0.00 99 1011.6
20260903213047 56 0.0 0.0 0.00 0.01 0.00 99 1011.5
20260903212043 56 315 0.0 3.0 0.00 0.01 0.00 99 1011.4
20260903211039 56 0.0 3.0 0.00 0.01 0.00 99 1011.2
20260903210037 56 0.0 0.0 0.00 0.01 0.00 99 1011.1
20260903205052 56 0.0 0.0 0.00 0.01 0.00 99 1011.2
20260903204030 56 0.0 0.0 0.00 0.01 0.00 99 1011.2
20260903203025 56 0.0 0.0 0.00 0.01 0.00 99 1011.0
20260903202102 56 0.0 0.0 0.00 0.01 0.00 99 1011.0
20260903201019 56 0.0 0.0 0.00 0.01 0.00 99 1011.2
20260903200115 56 0.0 0.0 0.00 0.01 0.00 99 1011.4
20260903195111 56 0.0 0.0 0.00 0.01 0.00 99 1011.4
20260903194110 56 0.0 0.0 0.00 0.01 0.00 99 1011.3
20260903193104 56 0.0 0.0 0.00 0.01 0.00 99 1011.5
20260903192102 56 0.0 0.0 0.00 0.01 0.00 99 1011.4
20260903191057 56 0.0 0.0 0.00 0.01 0.00 99 1011.5
20260903190053 56 0.0 0.0 0.00 0.01 0.00 99 1011.7
20260903185051 56 0.0 0.0 0.00 0.01 0.00 99 1011.8
20260903184047 56 0.0 0.0 0.00 0.01 0.00 99 1011.9
20260903183043 56 0.0 0.0 0.00 0.01 0.00 99 1011.9
20260903182048 56 0.0 0.0 0.00 0.01 0.00 99 1011.9
20260903181036 56 0.0 0.0 0.00 0.01 0.00 99 1011.9
20260903180055 56 0.0 0.0 0.00 0.01 0.00 99 1012.1
20260903175029 56 0.0 0.0 0.00 0.01 0.00 99 1012.2
20260903174025 56 0.0 0.0 0.00 0.01 0.00 99 1012.2
20260903173022 56 0.0 0.0 0.00 0.01 0.00 99 1012.4
20260903172018 56 315 0.0 4.0 0.00 0.01 0.00 99 1012.6
20260903171116 56 0.0 0.0 0.00 0.01 0.00 99 1012.8
20260903170133 56 0.0 0.0 0.00 0.01 0.00 99 1012.7
20260903165130 56 293 0.0 6.0 0.00 0.01 0.00 99 1012.8
20260903164106 56 293 0.0 6.0 0.00 0.01 0.00 99 1013.0
20260903163101 56 293 0.0 6.0 0.00 0.01 0.00 99 1013.0
20260903162058 56 0.0 0.0 0.00 0.01 0.00 99 1012.9
20260903161054 56 0.0 0.0 0.00 0.01 0.00 99 1013.0
20260903160050 56 0.0 0.0 0.00 0.01 0.00 99 1013.1
20260903155047 56 0 1.0 8.0 0.00 0.01 0.00 99 1013.3
20260903154043 56 328 0.0 8.0 0.00 0.01 0.00 99 1013.2
20260903153101 56 293 0.0 5.0 0.00 0.01 0.00 99 1013.2
20260903152037 56 315 0.0 8.0 0.00 0.01 0.00 99 1013.3
20260903151033 56 0.0 2.0 0.00 0.01 0.00 99 1013.5
20260903150032 56 113 1.0 8.0 0.00 0.01 0.00 99 1013.5
20260903145026 56 315 0.0 4.0 0.00 0.01 0.00 99 1013.7
20260903144023 56 293 0.0 8.0 0.00 0.01 0.00 99 1013.9
20260903143021 56 0.0 3.0 0.00 0.01 0.00 99 1014.0
20260903142017 56 298 3.0 9.0 0.00 0.01 0.00 99 1014.3
20260903141112 56 315 0.0 7.0 0.00 0.01 0.00 99 1014.3
20260903140109 57 315 0.0 8.0 0.00 0.01 0.00 99 1014.4
20260903135105 57 309 1.0 9.0 0.00 0.01 0.00 99 1014.5
20260903134104 57 293 1.0 8.0 0.00 0.01 0.00 99 1014.6
20260903133059 57 308 0.0 5.0 0.00 0.01 0.00 99 1014.7
20260903132055 57 303 2.0 10.0 0.00 0.01 0.00 99 1014.8
20260903131053 57 300 2.0 10.0 0.00 0.01 0.00 99 1014.8
20260903130048 57 235 0.0 10.0 0.00 0.01 0.00 99 1014.8
20260903125044 57 308 3.0 11.0 0.00 0.01 0.00 99 1014.8
20260903124204 57 305 5.0 11.0 0.00 0.01 0.00 99 1014.9
20260903123038 57 297 7.0 11.0 0.00 0.01 0.00 99 1014.8
20260903122035 57 309 8.0 11.0 0.00 0.01 0.00 99 1014.9
20260903121030 57 296 10.0 12.0 0.00 0.01 0.00 99 1014.9
20260903120028 57 304 9.0 12.0 0.00 0.01 0.00 99 1015.1
20260903115024 57 305 8.0 13.0 0.00 0.01 0.01 99 1015.1
20260903114022 57 304 10.0 13.0 0.00 0.01 0.01 99 1015.2
20260903113016 57 298 10.0 13.0 0.00 0.01 0.01 99 1015.4
20260903112113 57 301 11.0 14.0 0.00 0.01 0.01 99 1015.4
20260903111111 57 304 11.0 15.0 0.00 0.01 0.01 99 1015.3
20260903110106 57 303 12.0 15.0 0.00 0.01 0.01 99 1015.5
20260903105126 57 301 11.0 15.0 0.00 0.01 0.01 99 1015.5
20260903104101 57 305 10.0 14.0 0.00 0.01 0.01 99 1015.5
20260903103057 57 305 12.0 17.0 0.00 0.01 0.01 99 1015.7
20260903102052 57 308 12.0 17.0 0.00 0.01 0.01 99 1015.8
20260903101109 57 305 10.0 15.0 0.00 0.01 0.01 99 1015.9
20260903100106 57 296 8.0 11.0 0.00 0.01 0.01 99 1015.9
20260903095042 57 303 10.0 15.0 0.00 0.01 0.01 99 1015.9
20260903094039 57 305 8.0 11.0 0.00 0.01 0.01 99 1015.9
20260903093035 57 299 9.0 11.0 0.00 0.01 0.01 99 1016.0
20260903092031 57 309 11.0 15.0 0.01 0.01 0.01 99 1016.0
20260903091028 57 305 11.0 19.0 0.01 0.01 0.01 99 1015.9
20260903090105 57 313 11.0 16.0 0.01 0.01 0.01 99 1016.0
20260903085021 57 310 12.0 17.0 0.01 0.01 0.01 99 1016.0
20260903084017 57 303 11.0 17.0 0.01 0.01 0.01 99 1016.0
20260903083114 57 307 9.0 11.0 0.01 0.01 0.01 99 1016.0
20260903082110 57 306 9.0 13.0 0.00 0.00 0.00 99 1015.9
20260903081107 57 313 8.0 12.0 0.00 0.00 0.00 99 1016.0
20260903080105 57 313 9.0 15.0 0.00 0.00 0.00 99 1016.1